Mosinee, WI

8:27 AM CST on February 13, 2016 (GMT -0600)
Central Wisconsin

Weather History for KCWA - February, 2014

Change the Weather History Date:

Wednesday, February 19, 2014

  Actual Average Record
Temperature  
Mean Temperature 28 °F -  
Max Temperature 39 °F 28 °F 42 °F (1998)
Min Temperature 17 °F 11 °F -16 °F (2015)
Degree Days  
Heating Degree Days 37    
Moisture  
Dew Point 22 °F    
Average Humidity 76    
Maximum Humidity 100    
Minimum Humidity 56    
Precipitation  
Precipitation 0.00 in - - ()
Sea Level Pressure  
Sea Level Pressure 29.76 in    
Wind  
Wind Speed 10 mph (WSW)    
Max Wind Speed 113 mph    
Max Gust Speed -    
Visibility 10 miles    
Events      
Averages and records for this station are not official NWS values.
T = Trace of Precipitation, MM = Missing Value Source: NWS Daily Summary

Daily Weather History Graph

Daily Weather History Graph

Search for Another Location

Airport or City:

Trip Planner

Search our weather history database for the weather conditions in past years. The results will help you decide how hot, cold, wet, or windy it might be!

Date:

Astronomy

Feb. 19, 2014 Rise Set
Actual Time 6:52 AM CST 5:32 PM CST
Civil Twilight 6:23 AM CST 6:02 PM CST
Nautical Twilight 5:49 AM CST 6:36 PM CST
Astronomical Twilight 5:15 AM CST 7:10 PM CST
Moon 10:40 PM CST (2/19) 8:46 AM CST (2/19)
Length of Visible Light 11h 39m
Length of Day
10h 39m
Waning Gibbous, 79% of the Moon is Illuminated
Feb 19
Waning Gibbous
Feb 22
Last Quarter
Mar 1
New
Mar 8
First Quarter
Mar 16
Full

Hourly Weather History & Observations

Time (CST) Temp. Windchill Dew Point Humidity Pressure Visibility Wind Dir Wind Speed Gust Speed Precip Events Conditions
12:15 AM 30.2 °F 22.6 °F 24.8 °F 80% 29.63 in 10.0 mi West 8.1 mph - N/A   Clear
12:35 AM 30.2 °F 22.6 °F 24.8 °F 80% 29.64 in 10.0 mi West 8.1 mph - N/A   Clear
12:55 AM 28.4 °F 20.4 °F 23.0 °F 80% 29.64 in 10.0 mi West 8.1 mph - N/A   Clear
1:35 AM 28.4 °F 19.7 °F 23.0 °F 80% 29.65 in 10.0 mi West 9.2 mph - N/A   Clear
1:55 AM 28.4 °F 21.2 °F 23.0 °F 80% 29.65 in 10.0 mi WNW 6.9 mph - N/A   Clear
2:15 AM 26.6 °F 18.2 °F 23.0 °F 86% 29.65 in 10.0 mi West 8.1 mph - N/A   Clear
2:35 AM 26.6 °F 18.2 °F 21.2 °F 80% 29.65 in 10.0 mi West 8.1 mph - N/A   Clear
2:55 AM 26.6 °F 18.2 °F 23.0 °F 86% 29.67 in 10.0 mi West 8.1 mph - N/A   Clear
3:15 AM 24.8 °F 15.3 °F 21.2 °F 86% 29.67 in 10.0 mi WNW 9.2 mph - N/A   Clear
3:35 AM 24.8 °F 15.3 °F 23.0 °F 93% 29.68 in 10.0 mi WNW 9.2 mph - N/A   Clear
3:55 AM 23.0 °F 13.9 °F 21.2 °F 93% 29.68 in 10.0 mi WNW 8.1 mph - N/A   Clear
4:15 AM 23.0 °F 13.9 °F 21.2 °F 93% 29.69 in 10.0 mi WNW 8.1 mph - N/A   Clear
4:35 AM 23.0 °F 14.7 °F 21.2 °F 93% 29.70 in 10.0 mi WNW 6.9 mph - N/A   Clear
5:45 AM 21.2 °F 11.7 °F 19.4 °F 93% 29.72 in 10.0 mi West 8.1 mph - N/A   Clear
6:45 AM 17.6 °F 8.2 °F 17.6 °F 100% 29.74 in 10.0 mi WSW 6.9 mph - N/A   Clear
7:45 AM 19.4 °F 11.5 °F 17.6 °F 93% 29.76 in 10.0 mi WSW 5.8 mph - N/A   Clear
8:50 AM 24.8 °F 16.9 °F 21.2 °F 86% 29.78 in 10.0 mi West 6.9 mph - N/A   Clear
9:50 AM 28.4 °F 19.1 °F 21.2 °F 74% 29.80 in 10.0 mi WSW 10.4 mph - N/A   Clear
10:45 AM 30.2 °F 24.3 °F 21.2 °F 69% 29.82 in 10.0 mi WSW 5.8 mph - N/A   Clear
11:50 AM 33.8 °F 27.0 °F 23.0 °F 65% 29.82 in 10.0 mi WSW 8.1 mph - N/A   Clear
12:45 PM 35.6 °F 28.0 °F 23.0 °F 60% 29.80 in 10.0 mi WSW 10.4 mph - N/A   Clear
1:45 PM 37.4 °F 29.3 °F 23.0 °F 56% 29.80 in 10.0 mi SW 12.7 mph - N/A   Clear
2:45 PM 39.2 °F 33.0 °F 26.6 °F 61% 29.81 in 10.0 mi WSW 9.2 mph - N/A   Clear
3:55 PM 39.2 °F - 26.6 °F 61% 29.82 in 10.0 mi SW 112.8 mph - N/A   Clear
4:53 PM 35.6 °F 30.7 °F 24.8 °F 65% 29.83 in 10.0 mi SW 5.8 mph - N/A   Clear
5:45 PM 33.8 °F 28.6 °F 21.2 °F 60% 29.84 in 10.0 mi SSW 5.8 mph - N/A   Clear
6:45 PM 28.4 °F 22.2 °F 19.4 °F 69% 29.84 in 10.0 mi South 5.8 mph - N/A   Clear
9:35 PM 32.0 °F 26.4 °F 21.2 °F 64% 29.82 in 10.0 mi SE 5.8 mph - N/A   Scattered Clouds
9:45 PM 32.0 °F 26.4 °F 21.2 °F 64% 29.83 in 10.0 mi South 5.8 mph - N/A   Clear
9:55 PM 32.0 °F 26.4 °F 21.2 °F 64% 29.83 in 10.0 mi SSE 5.8 mph - N/A   Clear
10:15 PM 32.0 °F 26.4 °F 21.2 °F 64% 29.83 in 10.0 mi South 5.8 mph - N/A   Clear
10:35 PM 32.0 °F 24.2 °F 21.2 °F 64% 29.84 in 10.0 mi South 9.2 mph - N/A   Scattered Clouds
10:55 PM 32.0 °F 24.2 °F 23.0 °F 69% 29.84 in 10.0 mi South 9.2 mph - N/A   Scattered Clouds
11:00 PM 30.2 °F 22.6 °F 23.0 °F 75% 29.84 in 10.0 mi South 8.1 mph - N/A   Scattered Clouds
11:15 PM 32.0 °F 25.6 °F 24.8 °F 75% 29.84 in 10.0 mi South 6.9 mph - N/A   Mostly Cloudy
11:40 PM 32.0 °F 24.2 °F 24.8 °F 75% 29.83 in 10.0 mi South 9.2 mph - N/A   Scattered Clouds
11:55 PM 32.0 °F 24.8 °F 24.8 °F 75% 29.83 in 10.0 mi South 8.1 mph - N/A   Scattered Clouds